Theta_e
314 315 315 320 320 324 324 323 329 330 328 322 319 320 318 318 320 319 320 319 320 319 318 319 319 320 319 320 322 322 322 322 323 327 326 323 321 322 322 322 323 326 329 330 333 334 335 336 338 340 339 339 338 338 337 334 332 332 331 330 331 329 328 322 316 317 316 321 328 330 330 330 330 331 332 332 330 328 329 330 332 333 333 332 329 328 326 325 325 325 326 326 325 323 322 321 321
315 317 318 322 323 325 325 325 331 330 325 319 316 319 316 318 320 318 319 319 319 319 319 319 319 320 319 321 322 323 325 324 324 324 323 326 323 320 320 322 324 327 330 332 332 333 335 334 336 339 339 339 338 338 337 335 333 332 332 331 331 329 327 322 316 315 315 318 324 328 327 327 328 330 331 331 332 331 329 329 332 335 335 333 331 329 327 327 328 328 326 324 320 317 316 316 318
317 319 321 324 324 323 326 328 329 327 322 316 314 317 317 318 319 318 319 318 318 318 319 319 318 320 319 320 321 322 324 324 324 322 322 324 322 318 319 323 327 328 331 334 332 332 334 333 335 338 339 339 338 338 337 336 334 332 332 331 330 329 327 322 317 315 316 317 320 324 324 325 326 328 330 331 332 332 330 328 331 335 335 334 333 332 331 330 330 327 321 317 314 310 308 308 310
319 321 323 324 326 325 329 330 331 330 320 317 317 316 317 318 319 318 318 317 318 318 319 319 318 319 320 320 319 321 322 323 325 323 319 319 319 319 320 325 327 327 331 334 331 331 332 332 334 337 338 338 338 337 338 337 335 332 331 330 329 328 326 322 317 316 317 318 320 322 323 323 325 326 328 331 331 331 331 330 331 333 334 334 334 333 332 331 330 325 318 314 312 308 306 306 306
319 322 323 323 327 326 329 329 332 331 320 322 320 314 318 318 318 317 316 318 317 318 318 318 318 318 318 319 318 319 321 321 322 321 319 318 318 318 321 325 327 328 329 330 330 330 331 332 334 337 337 337 338 337 337 337 335 332 330 329 329 328 326 322 316 316 318 319 321 325 325 323 324 324 325 328 330 330 331 332 332 332 332 333 334 333 332 331 328 323 317 315 313 309 305 305 305
319 321 321 321 325 322 331 329 323 323 318 324 320 314 319 316 317 316 315 317 316 318 317 317 318 317 318 318 318 318 320 320 319 319 318 318 318 318 319 322 327 333 332 329 331 330 332 335 334 336 337 337 338 337 336 336 335 333 331 330 328 327 326 323 316 316 318 319 322 326 327 324 324 324 325 328 329 330 330 332 332 331 330 331 331 331 329 327 324 321 318 317 315 310 305 305 305
321 322 320 323 326 322 334 329 319 322 318 319 319 317 317 315 316 316 316 317 316 317 316 318 317 317 319 318 319 319 318 318 318 318 318 317 318 318 318 320 329 338 336 333 334 332 332 335 335 334 336 337 337 337 337 336 335 333 333 331 328 327 327 324 317 316 318 319 323 326 327 325 324 325 327 328 329 331 331 332 332 331 329 328 329 327 326 324 324 324 322 319 316 312 306 305 305
321 322 320 326 331 327 332 326 320 325 320 316 317 318 316 316 317 315 317 317 317 316 316 317 316 319 318 318 321 320 316 315 316 317 317 317 317 318 318 321 328 335 335 336 337 333 330 331 333 334 334 336 337 337 337 337 335 333 333 332 328 327 328 326 318 316 318 320 325 327 327 327 327 328 328 329 330 331 332 332 333 331 329 329 328 327 326 326 327 326 324 321 318 314 308 305 304
319 321 321 327 331 328 327 322 320 321 320 318 316 318 317 317 317 316 316 316 317 316 317 316 317 320 317 317 320 320 316 314 314 314 316 317 317 319 319 320 324 328 332 337 337 334 331 328 330 332 333 335 336 337 337 337 336 334 333 332 329 327 328 328 323 318 319 322 327 328 327 329 329 329 329 329 330 331 332 332 333 332 331 330 329 328 328 329 328 325 323 321 319 316 310 305 304
320 320 319 327 330 325 323 320 320 320 318 318 316 317 318 318 317 316 316 316 317 316 317 317 317 319 316 316 317 318 317 314 313 314 315 316 317 318 319 320 321 322 328 334 335 335 333 328 329 331 332 334 335 335 336 336 336 335 333 331 329 326 326 329 328 322 320 323 328 328 328 329 330 330 329 329 330 331 331 332 333 333 332 332 330 330 330 329 327 325 323 321 319 318 312 306 304
323 319 317 327 328 323 323 322 320 319 318 318 317 317 317 318 317 317 317 316 317 317 317 317 317 317 316 315 315 315 314 313 313 314 314 314 316 317 318 320 320 320 324 327 328 330 329 326 327 330 332 334 335 336 336 336 336 335 333 331 329 327 326 327 330 326 322 323 327 328 328 328 329 329 329 330 330 329 330 331 333 333 333 332 332 331 329 327 325 324 322 319 318 318 314 307 304
322 322 324 324 323 323 323 323 320 319 319 319 318 317 317 317 318 316 317 316 316 317 316 317 316 316 316 314 314 313 313 313 314 314 314 314 314 315 316 319 321 320 320 321 321 322 322 322 324 328 332 334 335 336 336 336 336 335 334 333 330 328 326 326 328 328 324 322 325 327 327 328 329 329 329 330 329 327 329 330 332 333 332 332 332 330 327 325 323 322 319 316 316 317 315 308 305
320 323 329 323 323 326 323 322 321 321 319 318 318 317 318 316 317 316 316 316 316 317 316 316 316 317 316 315 314 313 313 314 314 314 314 314 313 314 315 317 320 321 320 318 319 319 319 319 322 327 332 333 334 335 335 336 335 335 334 334 332 329 327 326 327 328 326 323 324 326 326 328 328 328 328 328 327 327 328 328 329 331 330 331 330 327 324 323 323 321 318 315 314 316 314 309 306
318 318 326 325 324 325 324 322 321 324 319 317 318 316 318 316 316 317 317 317 316 317 316 316 316 316 316 315 315 314 314 313 313 314 313 314 313 314 314 316 318 320 321 319 319 319 318 318 320 327 332 332 333 333 334 335 335 334 334 334 334 331 329 327 327 328 328 326 326 326 325 326 327 328 327 326 327 327 327 327 327 327 327 328 326 325 324 324 325 322 318 317 316 316 314 310 308
317 317 324 325 322 320 322 323 323 326 319 316 318 316 317 316 316 317 317 318 316 316 316 316 316 316 317 316 316 315 314 313 313 313 313 314 313 314 314 315 316 318 321 321 321 320 318 318 319 326 331 332 332 333 333 334 335 334 334 334 334 333 331 329 327 327 328 328 327 326 325 325 326 327 325 326 327 327 328 328 328 328 328 326 326 326 326 326 325 323 320 318 315 315 313 310 308
314 318 326 324 321 320 318 320 324 324 318 316 317 316 317 316 317 317 316 317 316 316 316 317 316 316 316 316 316 314 313 313 313 314 315 316 315 314 314 315 316 316 318 319 320 320 320 318 318 324 330 332 332 332 331 333 333 333 332 333 334 334 333 331 329 328 327 327 327 327 325 324 325 325 324 325 327 327 328 328 328 329 329 328 328 327 326 326 325 323 322 318 314 313 312 310 308
315 321 329 324 321 320 316 319 324 323 318 317 316 316 317 316 317 317 316 316 316 316 316 316 315 315 315 314 314 314 313 313 313 314 316 318 317 316 315 315 315 315 316 316 317 318 319 318 317 321 326 329 331 331 330 330 331 331 331 331 333 334 333 331 331 330 328 326 326 327 326 325 324 323 324 325 326 326 328 328 328 330 330 330 329 327 326 326 325 324 324 321 317 314 312 311 310
321 329 330 322 319 318 316 320 322 321 319 317 316 316 317 317 317 317 316 316 316 316 315 314 314 314 314 313 313 313 313 313 313 314 316 317 317 317 316 314 315 315 315 315 315 316 317 317 317 317 320 324 329 331 330 330 331 330 331 330 331 332 331 331 332 331 330 327 326 326 326 326 325 324 324 326 327 327 327 328 329 330 331 330 329 327 327 326 324 325 326 324 322 319 317 316 315
320 329 328 320 319 316 315 318 317 317 318 316 317 317 316 317 317 317 317 316 315 316 315 314 314 314 313 313 313 313 313 313 313 314 316 317 317 318 317 316 315 315 315 315 315 315 315 316 316 316 318 319 325 331 331 331 332 331 332 332 331 331 330 330 332 331 330 329 327 326 326 326 326 326 327 328 329 329 328 328 328 329 330 329 328 327 326 325 325 326 326 325 325 324 323 322 320
318 325 326 319 317 315 315 317 316 317 317 316 317 316 316 316 316 316 316 315 315 315 315 314 315 314 314 314 313 313 313 313 313 313 315 316 317 317 317 315 314 314 314 314 314 315 315 315 315 316 317 317 323 330 332 332 332 333 334 334 332 331 330 329 331 331 330 330 329 328 327 327 327 328 330 329 329 330 329 328 328 328 328 328 327 326 325 326 326 326 327 326 326 325 324 323 320
317 323 325 317 315 316 316 317 316 317 317 316 317 316 316 316 316 316 315 316 316 314 315 315 315 315 315 314 313 313 313 313 313 313 313 314 315 315 314 314 313 313 313 313 313 314 314 314 315 315 316 317 321 328 332 332 332 333 333 334 333 332 331 330 330 330 330 330 331 330 329 328 328 330 331 331 330 329 329 329 328 328 328 328 327 326 326 326 325 325 327 327 326 325 324 323 320
317 319 320 317 316 317 316 317 316 316 317 316 316 316 316 316 316 316 315 318 318 315 315 316 316 316 315 314 313 313 313 313 313 313 313 313 313 313 313 314 314 314 314 314 314 314 313 313 314 315 315 318 321 326 331 332 331 332 332 332 332 332 332 332 332 332 332 332 332 332 331 330 330 331 332 332 331 330 329 329 329 329 329 329 327 327 327 326 325 325 326 327 326 325 324 322 320
318 317 316 317 317 317 317 317 317 316 316 316 316 316 316 316 316 316 315 316 317 315 315 315 315 314 314 313 313 312 313 313 313 313 313 314 314 314 314 314 314 314 314 314 314 314 314 313 313 313 314 317 320 324 329 330 330 330 330 330 331 332 332 333 334 333 333 333 332 333 332 332 332 332 333 332 332 332 331 330 330 330 330 329 329 328 327 326 326 326 325 326 325 324 324 322 320
318 318 316 317 317 317 318 317 317 316 315 316 316 316 316 316 316 316 315 315 316 316 315 313 312 312 312 312 312 312 313 313 313 313 313 313 314 314 314 314 314 314 314 315 314 314 314 314 314 313 314 315 320 324 327 329 329 329 329 329 331 333 332 333 334 333 333 334 333 333 332 332 333 332 332 332 332 332 331 331 331 331 330 330 330 329 327 326 327 326 325 326 325 324 324 322 320
318 318 317 318 317 317 317 318 317 316 316 316 316 316 316 316 316 315 315 315 315 315 314 312 312 312 312 311 312 312 312 313 313 313 313 313 313 313 314 314 314 314 314 314 314 314 314 314 314 313 313 316 322 325 326 329 329 329 330 329 330 332 333 334 334 332 333 333 333 332 332 332 332 332 332 332 332 332 331 331 331 331 331 330 330 328 328 327 327 326 326 325 324 323 322 321 320
316 317 316 316 316 316 317 317 317 316 316 316 316 315 315 316 315 315 315 315 314 314 313 312 311 312 312 311 311 312 312 313 313 313 313 313 313 313 314 314 314 313 313 314 314 314 314 314 314 314 314 318 322 325 326 329 329 329 331 330 330 331 332 334 334 333 332 331 332 332 331 331 330 332 332 331 331 331 331 331 331 331 330 330 329 328 328 327 327 326 325 324 322 321 320 320 320
315 316 315 315 316 316 316 316 317 316 316 316 316 315 316 315 315 315 314 314 314 313 312 311 312 311 311 312 312 312 312 313 313 313 313 313 313 313 313 314 313 313 313 313 313 314 315 315 314 315 318 321 322 325 327 329 330 329 331 331 330 330 331 331 332 332 331 330 331 331 330 330 330 332 331 329 330 330 330 330 330 330 329 329 329 328 328 327 326 325 323 323 321 320 319 319 320
315 315 316 316 315 315 316 315 316 316 316 316 316 315 314 314 315 315 314 313 313 312 312 311 312 312 312 312 312 312 312 312 313 313 313 313 313 313 313 313 313 313 313 313 314 315 315 315 315 318 322 324 324 325 328 329 330 330 332 332 331 330 330 331 331 329 329 329 329 329 328 328 329 331 330 329 329 330 330 330 330 329 328 328 328 328 327 326 325 324 323 322 321 320 320 320 320
315 316 317 319 317 317 316 315 315 316 316 316 315 315 316 315 314 315 314 313 312 311 312 312 312 312 312 312 312 312 312 312 312 312 313 312 313 313 313 313 312 313 313 314 314 315 316 315 316 320 323 325 326 327 328 329 329 330 331 332 331 330 330 330 330 328 327 328 328 328 327 326 327 328 329 329 330 331 330 330 330 329 328 328 327 327 326 325 324 323 322 321 320 320 320 320 319
317 315 315 320 320 321 319 314 316 316 315 316 315 318 324 320 313 313 314 313 312 311 311 312 312 312 312 312 312 312 312 312 312 312 312 312 312 312 312 312 312 312 313 314 315 315 316 316 317 321 324 325 327 327 327 328 329 329 329 331 330 329 329 329 329 328 327 327 328 328 327 326 326 325 325 326 327 329 329 329 329 328 328 326 326 325 324 324 323 322 321 320 320 320 320 319 318
318 316 318 321 320 327 324 313 315 316 314 315 315 318 325 322 313 312 313 312 312 312 312 312 312 312 312 312 312 312 312 312 311 312 312 312 311 312 312 311 312 312 313 314 314 314 316 318 318 319 322 322 325 328 326 326 329 328 327 329 330 329 327 326 327 327 326 327 328 327 327 326 325 324 324 325 326 327 328 327 327 327 327 326 325 324 323 322 321 321 321 321 320 319 319 318 317
318 318 327 326 319 329 327 313 314 317 314 313 315 319 322 319 313 312 312 312 312 312 312 312 312 312 312 312 312 312 312 312 312 312 311 312 311 311 311 311 312 311 314 314 314 316 317 320 319 318 323 322 322 329 327 327 329 327 327 328 329 328 327 326 326 326 326 326 326 325 325 324 324 322 321 323 324 325 326 325 326 326 326 325 323 322 322 321 321 321 321 320 320 319 318 316 314
323 319 328 328 320 325 324 315 314 315 314 313 315 320 322 318 313 311 312 311 313 313 312 313 312 312 312 312 312 311 311 311 311 311 311 312 311 311 310 311 311 311 315 315 316 319 317 320 322 319 322 323 323 327 324 324 327 326 326 327 327 328 327 327 327 326 325 325 324 323 323 322 321 321 320 321 322 322 323 323 324 324 324 324 323 322 322 321 320 320 320 319 318 316 314 311 308
329 320 321 324 321 321 321 320 316 313 315 315 314 316 319 318 312 311 312 311 312 313 312 313 312 312 312 311 311 310 311 311 311 311 311 311 311 310 310 310 311 312 315 315 315 319 319 320 324 322 322 323 324 324 322 323 326 324 325 325 325 326 326 326 326 324 324 323 323 322 321 320 320 320 320 321 321 321 322 323 323 322 322 322 322 321 321 320 319 318 318 316 313 310 307 305 304
330 325 322 323 323 322 322 322 318 314 316 316 315 315 316 317 313 311 312 312 312 313 313 313 313 312 312 311 311 310 310 310 311 311 310 311 310 310 309 310 311 313 316 317 315 319 321 321 323 324 324 323 322 323 324 326 326 324 324 324 324 325 324 324 323 323 322 322 321 320 319 320 320 319 319 320 321 322 323 323 322 322 321 321 320 320 320 318 316 314 312 309 306 304 303 303 303
328 327 328 327 325 324 323 322 318 315 316 317 316 316 315 316 316 312 311 312 312 312 313 312 313 312 312 311 310 310 310 310 310 310 310 310 310 309 309 310 311 314 316 318 318 318 320 322 322 322 324 325 322 323 325 325 325 324 324 324 323 323 322 322 321 321 321 320 320 319 319 319 320 320 320 320 321 322 322 321 321 321 320 319 318 317 315 312 309 307 305 303 302 302 301 300 301
322 322 325 325 325 324 323 321 317 314 316 319 317 317 316 317 318 314 311 312 311 311 312 312 313 312 311 311 310 310 310 310 310 310 309 309 310 309 309 309 312 316 317 318 321 319 318 321 322 321 322 324 324 324 325 324 323 323 322 323 322 322 321 321 320 320 319 318 318 318 318 319 319 319 319 320 320 321 321 320 318 316 314 312 311 309 307 305 303 302 301 301 300 300 300 299 299
319 320 321 323 324 324 322 320 317 315 317 322 320 318 317 318 319 314 311 311 310 310 311 311 312 312 312 311 310 310 309 310 309 309 309 309 310 308 308 309 311 316 316 315 320 321 318 319 321 322 321 322 322 322 323 323 323 322 321 322 321 320 319 318 318 316 316 316 316 317 318 318 318 318 317 317 317 316 315 313 311 308 306 305 304 303 302 301 300 300 299 299 300 299 299 298 298
320 321 320 322 325 324 323 321 318 316 317 325 325 320 319 319 319 314 310 311 311 311 312 312 313 312 311 311 310 310 309 309 309 309 308 309 309 308 310 311 311 314 315 314 317 319 320 320 319 320 320 320 320 320 321 321 321 320 320 320 319 318 317 316 315 314 314 315 314 314 314 314 313 313 311 310 309 308 307 305 304 303 301 300 300 300 299 298 298 298 298 298 298 298 298 298 297
322 322 320 323 325 323 325 323 318 317 318 322 324 320 318 318 319 317 313 312 312 312 312 312 312 313 312 311 311 310 310 310 309 309 308 309 309 308 310 314 314 315 316 316 317 318 320 320 320 320 320 320 320 319 319 319 319 319 318 318 317 316 315 313 312 311 311 310 309 308 308 307 307 306 304 304 303 302 301 301 300 299 298 297 297 298 298 297 297 297 297 297 297 297 297 297 296
324 325 322 324 326 323 324 323 319 320 321 320 319 320 322 320 319 319 315 312 312 311 311 312 312 312 312 311 311 310 311 310 309 309 308 308 309 308 310 313 314 316 318 317 316 318 319 318 318 319 318 318 318 317 317 317 318 317 316 316 315 313 311 309 307 307 306 305 305 304 303 303 302 302 301 300 299 299 298 298 298 298 297 297 297 297 297 297 296 296 296 296 296 296 295 295 295
323 326 324 323 326 324 323 324 322 325 328 323 319 325 331 327 321 321 318 314 314 312 310 311 312 311 311 311 310 310 310 310 310 309 308 308 309 309 310 312 313 316 318 316 314 316 318 317 316 316 316 316 315 315 315 314 314 314 314 312 311 308 306 305 304 304 303 303 302 301 300 299 299 299 298 298 298 298 297 297 297 297 297 297 296 296 296 296 296 295 295 295 295 294 294 294 294
322 326 326 325 323 324 324 324 324 328 331 324 319 326 330 326 323 325 322 318 316 314 310 310 310 310 310 310 310 310 309 309 309 308 308 308 309 310 310 311 312 313 315 315 314 317 318 316 315 315 315 315 314 314 314 313 311 311 310 308 306 305 305 304 303 302 301 300 299 298 298 297 297 298 297 297 297 297 297 297 297 297 297 296 296 296 296 295 295 294 294 294 294 293 293 293 293
326 326 327 328 324 323 325 324 325 329 329 323 319 324 325 323 323 323 323 321 318 315 312 310 308 309 310 310 310 310 309 309 309 308 307 307 309 310 309 311 312 312 314 315 315 317 317 314 313 313 314 313 312 312 312 311 309 307 306 305 305 304 304 302 301 300 299 298 298 298 297 297 297 297 297 297 297 297 297 297 296 296 296 296 295 295 295 294 294 293 293 293 292 292 292 292 291
327 324 326 329 326 326 326 325 326 326 326 323 321 323 324 324 323 320 319 322 320 315 313 311 308 308 309 309 309 309 309 309 308 308 307 307 309 310 309 311 312 312 314 315 315 315 314 312 312 312 312 311 311 310 309 308 306 305 305 304 304 303 302 301 300 299 298 298 298 297 297 297 297 297 297 297 297 296 296 296 296 296 296 295 295 294 294 293 293 293 292 292 292 292 291 291 291
322 321 326 330 328 328 328 326 326 325 325 325 323 323 324 326 326 320 317 320 321 317 314 311 309 308 309 309 309 308 308 308 307 308 307 307 309 310 309 312 313 313 314 314 314 314 312 312 312 312 311 309 309 307 306 305 304 304 304 303 303 302 301 301 300 299 298 298 298 298 297 297 297 297 297 296 296 296 296 296 296 295 295 294 294 293 293 293 293 292 292 292 291 291 291 290 290
318 323 328 330 329 329 329 327 324 324 325 325 324 323 323 325 326 322 320 321 320 318 316 314 309 308 309 308 309 308 307 307 306 307 306 307 309 310 310 312 313 313 314 314 315 313 312 313 313 311 309 308 306 305 305 304 304 303 303 302 302 302 302 301 301 300 299 298 298 298 297 297 297 297 296 296 296 296 295 295 295 295 294 294 293 293 293 293 292 292 292 291 291 291 290 290 289
319 328 329 327 328 328 327 323 321 324 325 324 324 322 321 324 325 322 320 319 319 318 318 317 311 308 308 308 308 308 307 306 306 306 306 306 309 310 311 312 313 313 314 314 314 313 312 313 311 308 307 305 305 304 304 303 303 302 301 301 301 301 302 302 301 301 299 298 298 298 297 297 297 296 296 296 295 295 295 295 295 294 294 293 293 293 293 292 292 291 291 291 291 290 290 289 289
322 327 326 325 326 326 326 322 321 324 324 321 321 322 321 322 323 321 320 319 319 317 315 315 311 307 308 308 307 307 306 306 305 305 306 306 308 310 311 312 313 313 313 313 313 313 312 311 308 306 305 304 304 303 303 303 302 301 301 300 301 301 301 300 300 300 299 298 298 298 297 297 296 296 296 295 295 295 295 294 294 294 293 293 293 292 292 292 291 291 291 291 290 290 290 289 289
321 323 325 327 325 325 326 324 323 324 324 321 318 320 322 322 322 321 320 317 314 312 312 313 312 309 308 307 307 307 306 306 305 305 305 306 307 309 310 312 312 312 313 312 312 312 310 308 306 305 304 303 303 303 302 302 301 300 300 300 300 300 300 300 299 299 298 298 297 297 297 296 296 295 295 295 295 295 294 294 294 293 293 292 292 292 292 291 291 291 290 290 290 290 289 289 288
319 321 324 325 326 329 328 325 326 326 325 320 316 320 325 325 323 319 313 310 308 309 311 313 312 310 309 307 306 306 305 305 305 305 306 307 307 308 310 311 312 312 312 311 312 310 308 306 305 304 303 303 302 302 301 301 301 300 300 300 300 299 299 299 298 298 297 297 297 296 296 295 295 295 295 295 295 294 294 294 293 293 292 292 292 291 291 291 291 290 290 290 289 289 288 288 288
319 322 324 323 326 329 327 324 322 321 322 319 317 323 325 323 321 315 308 307 308 308 309 310 309 308 307 306 305 305 305 305 305 305 306 306 307 308 309 311 311 311 311 311 310 308 306 305 304 303 303 302 302 301 301 300 300 300 299 299 299 299 298 298 297 297 296 296 296 296 296 295 295 295 295 295 294 294 294 293 293 292 292 291 291 291 291 290 290 290 289 289 288 288 288 288 287
320 320 322 321 323 324 325 324 319 317 322 322 319 322 322 319 319 315 310 310 310 308 307 306 306 306 306 305 305 305 305 305 305 305 306 306 307 307 308 309 310 310 310 309 307 306 305 304 303 303 302 302 301 301 301 300 300 299 299 299 298 298 298 297 297 297 296 296 295 295 295 295 295 295 294 294 294 294 294 293 292 292 291 291 291 290 290 290 289 289 288 288 288 288 287 287 287
321 321 320 319 322 324 325 326 323 321 324 324 321 321 321 320 320 315 311 313 313 310 308 305 303 304 305 304 304 305 305 305 305 305 306 306 307 307 307 308 308 308 307 306 306 305 304 303 302 302 302 302 301 301 300 300 299 299 299 298 298 297 297 296 296 296 296 296 295 295 295 295 294 294 294 294 294 294 293 292 292 291 291 291 290 290 289 289 289 288 288 288 288 287 287 287 287
319 321 318 320 326 324 324 325 325 325 325 325 323 321 320 320 320 318 316 316 316 312 310 308 304 303 303 304 304 304 304 304 304 304 306 306 307 307 307 307 307 306 306 305 305 304 304 303 302 302 302 302 301 301 300 299 299 299 298 298 297 297 296 296 296 295 295 295 295 295 295 294 294 294 294 294 294 294 293 292 291 291 291 290 290 289 289 289 288 288 288 288 287 287 287 287 287
315 317 315 320 325 323 323 324 324 326 325 325 325 323 322 321 319 320 320 317 315 312 310 308 305 303 304 304 304 304 304 304 304 305 306 307 307 306 306 306 306 306 305 305 305 304 303 303 302 302 301 301 301 300 300 299 299 298 298 297 296 296 296 295 295 295 295 295 294 294 294 294 294 294 294 294 294 293 292 291 291 291 291 290 289 289 289 288 288 288 288 288 288 287 287 287 287
316 318 318 319 319 319 322 322 322 325 325 325 325 323 325 324 318 318 318 315 313 312 311 309 305 304 305 304 304 305 304 304 305 306 306 307 306 306 306 306 305 305 305 304 304 303 303 302 302 301 301 301 300 300 299 299 298 298 297 296 296 295 295 295 294 294 294 294 294 294 294 294 294 294 294 294 293 292 291 291 291 291 291 290 289 289 289 289 288 288 288 288 288 287 287 287 287
317 318 318 318 318 319 322 321 321 321 323 325 325 323 325 320 314 316 317 315 311 309 310 308 306 305 304 304 305 305 305 305 306 307 307 307 306 306 306 306 305 305 304 304 303 303 302 302 302 301 301 301 300 300 299 299 298 297 296 296 296 295 295 294 294 294 294 294 294 294 294 294 294 293 293 293 292 291 291 291 291 291 291 290 289 289 289 289 288 288 288 288 288 287 287 287 287
Wind_Speed
3 3 2 3 2 3 4 4 1 2 4 3 1 3 2 3 4 4 5 4 4 3 6 8 10 12 11 14 17 18 14 6 3 5 5 3 3 5 6 4 3 4 7 7 12 16 12 10 9 9 8 7 6 6 6 6 6 6 6 6 6 7 7 7 8 10 12 14 14 13 13 12 12 11 10 10 10 11 10 10 10 9 9 8 9 9 9 9 9 9 9 10 9 9 7 6 6
4 4 3 3 3 3 2 2 2 2 5 3 2 3 2 4 6 5 5 4 3 2 6 10 14 14 15 19 19 18 16 13 13 13 11 6 6 6 6 4 5 6 8 7 11 17 13 10 8 8 8 7 6 6 6 5 5 5 5 5 6 6 6 6 7 9 12 14 13 13 13 12 12 11 10 9 9 9 9 9 9 8 9 9 9 9 8 8 9 10 11 11 11 10 9 7 5
5 4 2 2 3 4 2 2 3 2 5 4 2 2 1 5 6 5 6 6 4 4 4 6 13 14 15 13 12 11 8 10 13 12 11 6 6 7 6 7 6 6 9 7 9 17 14 11 8 8 8 7 6 5 5 5 4 4 4 4 5 6 6 6 7 8 11 12 13 13 13 13 12 11 10 8 8 8 7 8 8 7 8 8 8 8 7 8 9 11 12 13 13 13 11 9 6
5 4 3 2 4 4 3 3 2 4 4 4 2 2 3 6 6 6 8 8 6 6 4 4 7 12 16 10 6 10 7 7 8 6 8 7 8 9 7 8 7 7 8 7 7 15 15 11 9 8 7 7 6 5 4 3 3 3 3 4 4 5 5 6 7 9 11 12 13 13 13 13 12 11 10 7 7 6 6 7 7 6 7 6 6 7 8 9 10 12 13 14 15 15 13 11 8
3 3 4 5 4 2 2 2 2 5 3 4 3 2 5 7 6 6 8 9 7 7 8 6 4 8 15 10 4 5 4 4 5 6 9 9 9 9 9 9 8 7 7 7 6 12 15 11 10 8 7 7 6 5 4 3 3 3 3 4 4 4 5 6 7 8 10 12 12 12 12 12 12 11 10 8 6 5 5 6 6 5 5 5 6 7 9 11 12 14 15 17 17 17 15 12 10
3 3 3 5 3 1 2 3 3 4 1 4 5 4 6 8 9 10 10 10 9 8 9 9 6 10 12 12 13 9 5 4 4 7 10 9 9 8 9 10 11 8 5 8 8 9 14 11 11 10 8 7 7 6 4 3 2 3 3 3 4 4 5 7 7 8 9 11 11 10 11 11 11 11 10 8 6 5 4 4 3 3 4 4 6 8 11 12 14 16 17 18 19 18 17 14 12
5 3 4 4 2 2 3 3 3 3 3 2 7 6 7 10 14 13 9 7 8 7 10 10 10 13 8 6 12 12 8 6 6 8 8 9 9 8 9 12 15 11 6 7 7 7 10 10 11 11 10 8 7 7 5 4 2 2 2 3 3 4 5 7 8 9 9 10 9 9 9 10 9 9 9 8 6 5 4 3 2 2 4 5 7 9 12 13 15 16 17 18 18 18 17 15 14
6 5 4 3 2 3 4 3 2 3 2 2 5 6 8 11 12 11 6 5 4 5 8 7 9 10 3 5 7 7 9 10 9 9 8 8 8 7 8 13 17 14 9 7 6 6 7 8 10 12 11 9 8 7 5 4 2 1 1 2 3 3 4 6 9 10 10 9 9 9 9 8 7 8 8 7 6 5 3 3 2 2 4 5 6 9 11 13 14 16 16 17 17 18 17 14 13
5 4 3 3 2 3 3 3 2 2 2 2 5 6 8 8 7 7 5 6 6 6 7 6 6 7 5 12 11 6 9 10 8 7 8 7 7 7 7 11 14 14 11 9 8 6 6 6 8 12 12 10 8 7 6 5 3 2 1 2 2 3 4 5 8 9 9 8 8 8 7 7 6 6 6 5 5 4 3 2 2 2 4 5 6 9 11 12 14 15 15 15 16 16 16 13 12
4 3 1 2 2 4 3 2 2 2 2 4 6 7 6 5 7 8 8 7 7 7 6 6 9 12 10 12 9 6 7 7 6 5 6 7 6 7 6 9 11 11 12 11 11 9 9 7 8 13 13 11 9 8 7 6 5 3 2 1 1 2 3 4 6 7 9 8 7 6 6 6 5 4 4 5 3 3 2 2 2 3 3 4 6 8 10 12 13 15 15 14 14 14 15 13 10
4 2 1 3 4 3 3 2 2 3 3 4 5 6 5 3 5 8 9 7 7 8 5 5 9 13 11 8 8 8 6 3 3 3 4 5 5 6 6 7 8 9 10 10 11 10 11 10 9 13 14 12 11 10 8 7 6 5 3 2 2 2 3 4 5 6 7 8 7 6 5 6 5 4 4 4 3 2 2 2 1 1 2 3 6 8 10 12 14 16 16 15 14 13 14 12 10
4 2 3 4 2 2 4 4 5 4 3 3 2 4 4 3 4 3 7 9 9 10 7 5 4 8 7 5 9 10 5 1 2 2 2 3 4 5 7 7 7 8 9 9 8 8 9 10 11 13 15 14 12 11 10 8 7 6 4 3 3 3 3 4 5 5 6 7 7 6 5 5 5 4 4 4 3 2 1 1 0 1 2 4 6 8 11 13 15 17 18 17 15 14 14 13 10
3 2 5 2 2 4 4 4 5 4 3 0 3 5 3 3 5 5 9 11 9 8 6 5 4 5 5 5 9 8 5 1 1 2 1 2 4 5 7 8 9 9 10 9 7 7 7 9 11 13 15 14 13 12 11 10 8 7 5 4 4 3 3 3 5 5 5 6 6 6 6 5 5 4 3 3 1 0 0 1 1 2 4 4 6 9 11 13 15 17 18 18 16 14 14 13 11
4 2 4 1 1 3 5 3 3 4 1 3 4 7 4 4 6 9 13 10 6 6 4 3 4 6 6 6 7 7 4 1 2 2 1 2 4 5 6 8 10 11 11 11 9 8 7 8 11 14 15 14 13 13 12 11 10 8 7 6 5 4 4 4 5 5 5 5 6 6 6 5 5 4 3 1 1 1 1 1 2 3 4 5 6 8 10 12 14 16 18 18 15 14 13 13 12
4 3 4 2 3 2 3 2 3 6 2 3 5 7 6 6 5 9 11 6 5 6 4 4 3 4 5 5 6 7 2 2 2 4 3 4 5 6 6 8 10 11 13 13 12 10 8 8 10 15 16 15 14 14 13 12 11 10 8 7 7 5 5 4 4 5 6 5 5 6 6 6 5 5 3 2 2 1 1 2 3 4 4 5 6 7 9 10 12 15 16 16 15 14 13 13 12
4 3 4 3 2 1 1 1 4 5 2 3 6 8 6 5 4 6 7 4 6 5 3 3 2 3 6 7 7 6 1 1 2 5 6 5 5 7 8 9 10 12 13 14 13 12 11 9 9 12 15 16 16 16 15 14 13 12 11 10 8 7 6 5 4 5 5 5 6 6 7 7 7 6 5 4 3 2 2 2 2 3 5 5 6 7 8 9 12 14 14 15 15 14 13 12 12
4 3 5 3 1 2 0 0 3 4 3 4 6 6 4 3 3 4 3 3 6 6 5 5 3 4 5 6 7 5 2 1 3 6 8 7 6 8 9 10 11 12 12 13 13 13 13 11 10 10 13 15 15 16 16 15 13 12 12 12 10 9 7 6 5 4 4 5 6 7 8 8 8 8 7 5 4 4 3 3 2 3 4 4 5 7 8 9 10 11 11 13 15 13 12 12 12
4 2 4 2 0 1 1 1 4 5 4 5 5 3 4 5 4 4 2 3 8 7 7 8 6 5 5 5 4 2 2 2 5 8 9 9 8 8 9 9 10 11 12 13 13 13 14 13 12 11 12 14 14 14 14 14 13 12 12 12 11 11 9 7 6 5 5 5 5 7 8 8 9 8 8 6 5 5 5 4 3 3 3 3 6 7 7 8 8 9 9 11 14 13 13 13 13
3 3 4 1 3 1 1 4 4 5 7 7 6 3 5 7 6 5 1 2 10 8 6 8 8 7 6 4 2 1 2 4 7 10 11 11 11 9 8 8 8 9 10 11 11 12 13 14 14 13 12 13 14 14 14 13 12 12 11 11 11 11 11 9 7 7 6 6 6 6 7 8 9 9 8 7 6 6 6 5 4 4 5 5 7 7 7 7 6 8 9 10 13 15 16 16 14
2 3 4 2 4 3 6 9 8 7 11 10 7 3 4 7 7 6 2 2 6 7 7 7 8 9 7 5 3 3 4 6 8 11 12 12 11 10 8 8 7 8 9 9 9 11 12 13 14 14 13 13 15 15 14 13 13 12 11 11 10 10 10 11 10 8 9 8 8 8 9 9 10 9 8 7 6 6 6 6 6 5 5 6 7 6 5 4 5 7 9 11 15 17 18 17 15
2 2 4 4 3 4 5 8 8 8 10 9 7 3 1 5 6 4 4 2 1 6 10 9 10 11 9 7 5 4 6 7 7 8 10 10 10 8 7 7 7 8 9 9 9 9 10 12 13 13 14 14 16 16 14 13 13 12 10 10 10 9 9 11 11 10 10 10 10 10 10 11 10 9 9 8 7 6 6 6 5 4 3 5 6 5 5 4 7 8 8 12 16 16 17 16 14
3 2 4 3 4 4 3 6 5 5 6 5 5 2 2 5 5 3 5 4 4 9 12 11 11 9 7 7 6 6 8 8 7 6 7 7 7 6 6 6 6 7 7 8 8 8 8 10 12 13 13 14 15 17 16 14 12 12 10 9 10 9 8 10 12 12 12 12 11 11 11 11 10 9 8 7 6 6 5 4 4 2 2 4 4 4 5 6 8 8 8 12 14 13 14 13 12
2 1 3 7 5 6 6 5 3 2 3 3 2 2 4 5 3 4 5 6 7 11 13 11 10 9 9 10 9 9 10 10 8 7 6 6 6 6 6 6 7 7 8 8 8 7 8 9 11 12 13 14 15 17 17 15 13 12 12 11 11 10 9 11 12 12 12 12 11 10 11 10 9 7 6 6 6 5 4 3 4 3 3 4 4 4 5 6 6 8 9 10 10 10 11 10 10
3 0 2 5 4 7 7 5 5 3 4 4 3 4 5 4 2 3 6 7 8 12 11 9 8 9 10 11 11 11 11 11 9 8 8 7 7 7 7 7 7 8 8 8 8 8 9 9 11 11 12 14 15 16 17 16 15 15 14 14 13 12 12 11 12 12 10 11 11 10 10 9 8 7 6 7 7 6 5 5 5 5 5 5 4 4 3 4 5 8 9 8 7 7 8 7 8
4 1 1 2 1 5 7 6 6 6 6 6 5 6 7 6 4 4 7 10 11 11 9 7 8 8 9 10 11 11 11 10 9 8 8 8 7 7 7 7 8 8 8 8 8 9 9 10 11 11 13 16 17 18 19 17 16 17 15 16 16 15 13 12 12 12 13 13 11 10 10 9 9 8 7 7 7 7 7 8 9 8 7 7 5 4 3 3 6 8 8 6 4 5 5 5 6
2 1 2 3 2 3 6 8 8 7 7 8 6 6 9 9 6 6 9 13 12 10 8 7 9 10 10 10 10 10 9 9 8 8 7 7 7 7 7 7 8 7 7 7 6 7 8 9 10 11 15 18 21 21 21 19 18 18 17 16 17 16 16 14 12 13 15 14 10 9 10 10 10 9 7 6 7 7 7 8 10 8 7 7 6 6 5 4 5 5 5 4 4 4 5 5 6
2 2 4 5 7 8 8 10 11 9 9 11 8 6 9 8 6 5 9 15 13 11 10 9 10 11 11 10 9 8 7 7 7 7 6 7 6 7 7 7 8 7 6 6 5 6 7 9 10 12 17 19 22 22 21 20 19 19 18 17 18 17 16 16 15 15 16 13 9 9 10 10 10 9 8 9 10 9 8 7 7 6 7 7 7 6 5 3 3 3 3 3 2 3 4 5 8
2 3 6 8 10 12 11 11 13 10 7 12 12 5 5 4 5 7 13 17 14 13 13 12 12 12 11 9 8 7 6 7 7 7 7 7 7 7 8 7 7 7 5 5 5 5 7 10 11 14 17 18 19 21 20 20 19 18 17 17 19 18 16 15 16 17 16 12 9 8 8 9 10 9 9 10 11 10 10 8 7 7 7 8 9 7 6 4 3 3 3 1 2 4 5 6 9
1 1 3 7 7 8 12 13 16 12 4 10 10 2 5 5 6 7 13 18 14 14 15 14 13 11 10 8 8 8 8 8 7 8 8 8 8 8 7 7 7 7 6 5 5 5 8 10 13 15 16 16 17 19 19 18 18 18 16 16 17 18 18 17 16 16 14 11 8 6 6 7 8 8 9 10 9 7 7 7 7 7 8 10 9 7 5 4 3 3 3 2 3 5 7 9 10
1 1 1 3 6 5 10 11 15 12 5 12 10 1 6 7 8 8 13 18 16 15 16 15 14 11 10 9 9 9 9 9 9 9 8 8 8 7 6 7 7 7 6 4 4 6 8 10 13 16 15 16 17 16 18 17 17 18 16 15 16 17 17 15 13 12 11 9 7 7 6 5 5 7 9 10 8 6 5 6 6 6 8 8 6 5 5 4 4 3 3 3 4 5 8 10 11
1 1 1 1 2 5 7 3 13 9 4 13 11 1 7 7 6 12 15 18 18 17 17 16 15 12 12 11 10 11 10 10 10 10 9 8 7 6 6 7 7 7 5 4 4 5 7 8 10 14 14 15 16 14 15 16 15 17 15 14 15 16 15 11 10 9 8 7 7 7 6 5 6 7 6 6 7 6 5 5 5 5 7 6 5 5 4 4 4 3 3 3 4 6 8 10 11
1 1 3 2 2 5 7 1 13 8 3 11 9 1 7 7 8 14 16 19 19 18 18 17 16 14 13 12 11 11 11 11 10 9 8 7 6 5 6 6 7 7 5 4 5 5 8 10 8 11 11 11 14 14 13 15 14 14 14 12 12 13 12 11 10 9 8 7 7 6 5 6 7 6 4 6 6 6 5 4 4 6 7 5 4 3 4 4 3 3 4 5 5 7 9 10 10
2 2 3 3 2 3 5 2 8 8 5 7 6 3 4 5 9 16 16 20 20 18 19 18 17 16 15 14 13 12 12 11 10 9 7 7 6 5 6 6 6 6 6 6 8 8 8 11 9 10 12 10 14 15 12 14 15 13 13 14 12 10 10 11 10 9 8 7 5 5 5 5 5 4 3 4 5 4 4 4 4 5 5 4 4 5 5 4 4 4 4 5 6 8 8 8 8
3 1 3 4 3 2 2 4 6 7 7 5 5 4 5 5 9 18 19 21 21 20 21 22 20 19 17 15 14 13 12 12 11 9 8 8 7 6 6 6 6 6 8 6 9 10 9 11 11 11 12 12 13 13 13 15 15 12 11 13 13 10 10 11 10 9 8 6 4 3 2 3 5 5 4 4 4 4 5 6 6 5 6 6 5 4 3 2 3 5 5 6 6 7 8 10 11
3 3 2 4 3 3 4 3 4 7 5 5 4 5 10 8 6 16 21 22 23 23 23 23 23 21 19 18 17 15 14 14 13 10 8 9 8 7 7 7 7 8 9 7 9 12 11 11 12 12 13 14 13 12 15 16 14 12 11 12 13 12 12 12 10 9 7 5 4 3 2 2 4 4 5 5 4 5 6 6 6 7 6 4 2 1 2 3 4 5 5 6 8 10 12 14 13
6 6 4 4 3 4 4 4 5 8 4 5 7 7 10 9 7 13 20 23 24 22 19 21 23 22 21 20 19 18 17 16 14 10 9 9 9 8 8 9 9 9 11 10 10 11 12 13 14 13 14 17 16 14 16 15 14 13 13 14 15 14 13 12 10 8 7 6 6 6 4 4 5 5 5 6 6 6 6 5 5 4 3 2 1 1 1 2 3 5 7 9 10 11 13 15 14
5 4 3 4 4 5 4 3 5 7 5 6 9 8 9 8 7 12 21 22 20 20 18 20 25 24 24 23 21 20 18 17 14 11 11 11 10 9 9 11 12 13 13 13 12 11 12 14 16 16 16 16 15 15 16 17 16 15 15 15 15 14 12 11 10 9 8 7 7 7 6 6 6 6 6 6 5 5 4 4 3 3 4 3 3 4 5 7 8 9 9 9 9 10 13 15 14
6 5 5 5 4 6 5 3 4 3 3 5 6 7 9 8 7 12 17 14 16 24 23 24 27 26 26 25 22 21 20 18 16 14 13 13 12 11 11 12 14 16 15 15 14 13 14 15 15 17 17 15 13 13 15 17 17 15 14 14 13 13 12 10 10 10 10 9 9 9 8 7 7 7 7 6 5 5 5 6 6 8 9 8 9 10 10 10 10 10 10 10 10 11 12 13 12
7 6 5 5 4 4 4 2 1 0 2 4 6 6 8 9 8 9 15 17 22 32 33 30 32 30 29 27 25 25 23 21 19 16 15 15 13 13 13 13 15 16 15 16 16 15 16 16 16 16 15 14 15 14 14 14 14 13 13 14 13 13 12 11 10 10 10 10 10 11 10 10 9 9 10 9 10 11 10 11 12 12 12 12 11 11 11 11 11 11 11 12 12 12 12 12 12
6 5 4 5 4 3 3 4 3 1 1 2 5 6 6 7 7 7 17 25 22 25 29 27 29 32 31 30 28 27 25 23 21 18 17 17 16 15 16 17 17 18 17 18 18 18 19 17 16 17 15 16 16 16 15 15 15 14 14 14 13 12 12 12 12 14 14 15 16 16 15 15 15 15 16 15 14 15 14 13 13 13 13 12 11 10 10 11 11 11 12 12 12 11 12 14 14
4 5 6 5 4 5 5 3 1 2 4 2 3 6 6 6 9 10 11 15 11 11 18 20 23 28 29 28 28 27 25 24 23 20 19 19 19 18 19 20 19 20 21 20 19 20 20 17 16 15 14 15 14 14 14 15 16 16 16 15 14 15 17 18 20 21 20 21 21 21 20 19 18 18 17 15 14 14 13 13 13 12 12 11 10 10 10 10 10 10 11 12 12 13 14 14 14
5 5 7 7 6 6 5 0 3 4 5 3 1 3 6 3 8 10 4 5 6 7 13 19 22 24 26 27 28 27 25 23 22 20 20 21 20 20 21 22 22 22 23 21 20 21 19 18 17 15 15 15 15 15 14 14 15 15 16 17 20 23 25 24 23 24 24 23 23 22 21 19 17 17 16 14 13 12 12 12 11 11 10 10 10 10 10 10 11 12 12 13 13 14 13 13 14
4 5 6 8 8 7 7 4 1 1 4 4 2 2 7 4 4 8 4 5 9 8 10 17 20 22 26 29 29 29 27 24 22 20 21 22 22 23 24 24 24 24 24 22 21 22 20 18 17 16 17 18 17 17 15 13 13 16 18 22 24 26 27 26 25 24 23 22 22 21 20 18 16 14 13 13 12 11 11 10 10 10 10 10 11 10 11 12 13 13 13 14 14 14 13 13 14
4 5 5 7 8 8 8 6 4 4 3 4 1 3 6 8 6 7 7 7 9 10 11 13 18 24 27 30 30 29 28 26 25 23 23 24 24 25 25 25 25 24 25 23 22 21 19 18 17 18 19 19 18 17 15 15 17 20 23 24 25 24 25 26 25 23 22 21 20 19 18 16 15 13 12 11 10 10 9 9 9 9 9 10 11 11 12 13 13 13 13 14 15 15 15 16 15
6 5 5 6 6 5 4 3 2 2 2 3 2 4 3 9 5 2 5 7 10 13 14 14 20 27 28 30 30 29 28 26 25 24 23 25 26 25 25 26 26 25 25 24 23 21 19 18 19 19 19 19 18 18 18 18 19 21 23 23 24 24 23 23 23 21 20 18 17 16 15 14 13 11 10 9 9 8 8 8 8 9 9 10 11 12 12 13 13 14 14 16 17 17 18 18 17
4 4 5 6 4 4 5 4 3 3 2 5 5 5 3 9 3 3 1 6 10 13 12 14 21 28 29 31 31 29 28 27 25 23 22 24 27 27 26 27 28 27 26 24 23 21 21 20 19 18 18 18 19 19 20 20 20 20 21 21 20 21 21 21 20 19 18 16 14 14 13 12 11 10 9 8 7 7 7 7 8 8 10 11 12 13 13 14 15 15 16 17 17 18 18 18 19
6 6 6 7 6 5 4 2 5 2 6 6 9 9 6 6 3 5 5 5 7 9 8 9 15 25 30 32 33 31 29 28 26 23 22 25 28 28 27 28 29 28 27 26 24 23 22 21 20 19 19 19 20 20 21 21 21 20 19 18 17 17 17 17 17 17 16 15 13 12 11 10 9 8 7 6 6 6 6 7 8 9 11 12 12 13 14 15 15 16 17 17 17 18 18 18 18
7 5 4 4 4 4 4 4 3 2 8 5 10 11 9 8 6 3 5 5 4 7 8 7 12 23 31 32 32 32 31 30 28 26 25 27 30 30 29 30 30 29 29 27 26 25 24 22 21 21 22 22 21 21 22 22 22 20 19 17 15 14 14 14 13 14 14 13 11 11 10 9 8 7 6 5 5 6 6 8 9 10 11 12 12 13 14 14 15 15 16 16 16 17 16 16 16
5 5 6 3 1 2 2 2 2 5 7 4 8 8 7 9 9 7 10 10 7 7 9 11 16 24 29 30 31 32 33 32 31 30 29 30 32 33 32 32 32 31 30 29 28 26 25 24 24 25 25 24 23 23 23 23 22 21 19 17 15 14 13 13 12 12 13 12 10 10 9 8 7 7 6 5 5 6 7 8 9 10 10 11 12 13 13 14 14 14 15 15 15 15 15 15 15
5 6 6 5 3 1 3 3 3 4 5 4 4 5 3 5 5 8 12 11 8 7 9 13 19 26 30 32 33 33 33 34 33 32 31 31 33 33 33 34 33 32 32 31 29 28 27 26 27 27 26 25 24 24 24 23 22 21 18 17 15 15 14 13 12 12 12 12 11 10 9 8 7 6 6 5 5 6 7 7 8 9 10 11 11 12 12 13 13 14 14 14 14 14 14 14 14
6 5 6 5 5 4 4 4 4 4 4 4 1 3 4 3 2 6 8 7 6 5 6 8 14 23 29 31 32 33 33 33 33 34 34 33 33 33 34 35 35 34 33 32 31 29 29 29 29 28 27 26 25 25 24 23 22 21 19 18 16 15 14 14 13 12 12 12 11 10 9 8 7 5 5 4 5 5 6 7 8 9 9 10 10 11 12 12 12 12 12 13 12 12 12 12 12
3 2 4 4 5 5 3 3 4 2 2 3 2 4 4 4 5 4 3 4 5 4 3 10 15 21 27 29 31 33 34 34 34 35 35 34 33 33 35 36 36 35 34 33 32 32 32 31 31 29 27 27 26 25 24 23 22 21 20 19 17 16 15 15 15 14 13 12 11 10 9 8 6 4 3 3 4 5 5 7 7 8 9 9 9 10 10 10 11 11 11 11 11 10 10 10 10
2 2 5 4 3 5 3 3 1 2 4 4 4 5 4 3 7 4 2 2 3 4 4 11 18 24 28 30 33 35 35 35 36 36 36 35 34 34 36 37 37 37 36 35 34 34 34 33 32 30 28 27 26 24 24 23 22 21 21 20 18 17 16 15 15 15 15 14 12 11 9 7 6 4 3 3 3 4 5 6 6 7 7 8 8 9 9 9 9 9 9 10 10 10 10 10 10
5 4 6 2 2 1 2 2 2 1 5 4 4 7 5 2 5 2 3 1 3 3 3 8 14 22 27 29 33 36 36 36 35 36 35 35 35 36 37 38 38 37 37 36 36 35 34 33 32 31 30 28 26 25 24 23 23 22 21 21 19 18 18 17 16 15 15 14 13 12 9 7 6 4 3 2 2 3 4 5 5 6 6 7 8 8 8 9 9 9 9 10 10 10 11 11 12
5 4 5 4 1 1 3 2 3 3 4 4 3 6 6 7 6 1 2 8 8 7 7 7 12 20 25 28 32 34 35 35 36 36 36 35 36 37 38 38 38 37 37 37 36 35 34 33 31 30 29 27 26 26 25 24 23 22 22 21 21 20 19 18 17 16 15 14 13 11 10 8 6 5 3 1 1 2 3 3 4 4 6 7 8 8 9 9 10 10 10 11 11 11 11 12 12
3 2 3 2 2 3 4 3 2 2 3 4 2 3 4 7 7 7 10 13 12 11 10 10 15 22 27 30 33 34 36 37 38 38 37 37 38 39 39 39 39 38 38 37 37 36 35 34 32 30 29 27 27 26 26 25 25 24 24 23 22 22 21 20 18 17 16 15 13 12 11 9 7 5 3 2 1 0 1 2 2 4 6 7 8 9 10 10 11 11 11 12 11 11 12 12 12
3 3 4 3 1 2 1 2 2 4 3 3 3 5 6 4 3 8 13 13 13 15 14 12 17 25 29 32 35 37 37 38 38 38 37 38 39 39 39 39 39 40 39 39 38 37 36 35 33 32 30 29 29 28 27 27 27 26 26 25 24 23 22 21 19 18 17 16 15 13 11 9 8 6 5 3 3 2 2 2 2 4 6 8 9 10 11 11 12 12 12 12 12 12 12 13 13
6 6 7 7 6 4 2 4 3 3 3 4 3 7 8 3 0 3 8 8 10 16 16 14 19 27 29 31 35 37 38 38 38 38 38 39 41 41 40 40 41 42 42 41 40 39 38 36 34 33 32 31 30 30 29 29 29 28 27 26 25 24 23 22 21 20 19 17 16 14 12 11 9 8 6 5 4 4 3 3 3 5 6 8 9 10 11 11 12 12 12 12 12 12 13 14 14
Wind_Direction
77 122 178 163 122 81 54 48 58 339 70 95 108 92 55 74 91 68 50 52 65 19 52 68 41 47 85 97 97 81 60 56 82 95 134 146 78 134 142 157 191 156 164 158 178 183 172 166 159 160 157 150 141 124 120 107 106 103 105 102 87 77 70 87 111 120 126 124 114 108 105 100 95 87 77 68 64 61 59 62 64 73 75 74 75 72 68 62 55 47 38 30 23 20 19 19 21
82 123 159 133 74 44 37 49 77 8 54 64 33 96 93 61 66 71 77 77 104 109 74 66 50 59 99 101 89 75 58 62 79 100 122 110 82 139 132 126 173 152 149 137 172 182 176 171 163 164 163 157 152 137 130 114 113 108 107 105 93 83 78 94 110 115 121 124 115 106 103 98 95 91 84 76 73 69 63 61 60 71 76 72 71 67 63 55 45 33 23 15 7 2 359 356 351
88 111 123 127 54 34 16 44 84 73 75 84 13 332 82 77 87 109 96 89 92 88 80 62 55 64 88 86 70 76 79 74 81 97 103 103 113 135 118 118 152 147 141 116 159 182 178 174 170 168 168 160 159 152 139 125 118 114 111 105 100 92 89 107 117 116 117 119 111 102 99 94 93 94 93 89 86 78 68 67 66 72 70 65 62 57 51 43 35 25 15 8 4 2 0 -0 357
88 104 91 67 38 34 39 57 107 107 110 129 72 352 90 108 117 115 94 86 83 73 70 72 61 71 81 80 79 82 82 72 77 100 93 102 121 124 116 119 145 139 137 113 136 179 180 177 177 173 173 169 168 162 152 141 119 109 105 98 101 97 100 119 122 120 120 116 110 102 94 91 91 94 98 100 96 85 74 76 78 77 65 56 52 48 44 36 28 17 9 7 6 7 8 10 12
91 109 77 43 30 16 70 67 80 92 140 169 119 128 125 123 124 114 103 94 90 76 66 78 86 83 79 68 75 72 66 82 79 107 106 109 119 121 120 127 148 135 131 114 108 172 179 181 182 180 179 178 178 169 160 156 121 98 91 85 94 103 113 129 128 124 127 121 113 104 94 90 89 89 94 97 95 88 83 81 81 78 65 48 37 33 31 25 16 8 4 5 7 9 11 14 17
106 117 57 25 23 346 73 64 55 66 200 160 123 159 143 129 129 123 112 97 91 85 76 85 110 101 83 68 70 62 58 97 98 105 109 114 123 122 126 134 140 136 138 116 102 157 175 182 184 183 185 182 181 176 172 168 131 92 75 59 86 111 122 134 135 133 136 129 117 105 99 94 91 90 94 99 95 86 77 72 73 63 49 31 16 7 8 10 7 3 360 2 6 8 11 14 17
81 79 31 14 20 35 87 105 98 77 347 108 130 155 147 138 136 130 120 102 88 81 84 89 107 100 90 102 76 60 70 97 105 102 110 119 129 129 129 131 132 146 163 132 118 150 171 181 184 187 188 186 185 182 184 181 144 95 70 49 78 108 122 134 139 144 145 135 121 109 106 100 96 97 98 102 102 99 90 82 76 51 39 22 9 0 3 8 6 1 358 -0 4 7 10 13 16
60 50 28 37 37 35 90 104 106 127 34 64 124 135 135 134 135 136 135 127 112 85 87 83 101 95 79 141 98 72 89 87 88 93 109 120 130 137 135 133 138 156 166 155 161 168 173 179 186 192 189 191 193 185 187 189 163 130 100 64 79 102 119 133 138 147 149 142 129 118 115 107 99 100 100 102 107 110 112 108 82 42 32 22 12 6 6 8 6 3 1 1 3 7 10 13 15
52 43 26 58 47 36 75 76 70 121 100 82 91 106 117 110 106 125 121 104 113 91 72 42 86 123 116 107 104 111 99 78 79 84 104 120 133 138 140 146 152 162 163 168 184 192 191 186 188 193 192 192 195 187 188 195 185 182 159 94 83 111 128 138 140 149 152 146 134 128 124 115 108 106 108 109 116 116 112 113 72 34 27 23 15 11 7 4 4 5 5 3 3 6 9 12 14
45 48 26 69 55 51 63 34 57 107 127 119 98 102 110 88 79 107 115 102 115 92 58 49 92 136 128 103 112 121 97 80 86 83 101 119 138 145 150 161 167 166 165 175 188 201 206 200 191 191 192 193 196 195 193 200 201 207 202 147 127 133 149 155 149 152 156 150 141 138 130 127 124 117 117 116 119 116 91 84 56 16 19 17 10 9 3 359 359 2 3 1 1 5 9 12 14
36 13 9 67 46 61 125 127 104 124 130 110 86 96 107 93 79 103 111 99 113 95 66 69 96 130 121 104 133 125 104 100 121 109 104 118 142 154 161 169 182 180 174 178 185 198 203 200 194 190 191 195 198 197 198 201 208 213 213 194 186 163 164 173 166 161 163 157 151 151 144 141 140 132 129 121 114 101 82 82 61 355 355 347 356 2 358 357 357 357 356 354 355 -0 8 13 16
27 345 51 79 57 128 156 141 140 136 101 87 72 112 116 94 65 81 107 98 108 91 66 56 75 128 114 108 146 143 138 136 133 105 99 135 151 161 168 169 181 196 195 190 185 188 194 195 193 190 190 195 198 198 203 204 209 213 205 205 206 189 182 188 181 175 174 167 163 166 164 158 155 150 141 130 111 87 89 70 65 355 337 333 347 353 355 356 356 356 354 352 351 354 3 9 15
41 31 73 102 187 139 130 131 152 122 71 164 175 148 128 86 58 61 99 97 106 96 68 61 61 106 111 127 147 167 191 217 63 59 55 146 163 172 176 169 174 195 207 208 200 190 190 194 191 189 192 197 200 200 204 206 211 217 211 205 207 200 195 202 199 191 184 179 176 180 182 179 175 170 155 143 119 87 131 0 352 340 330 331 341 347 352 355 356 358 358 357 356 356 360 4 7
44 48 90 125 326 113 119 122 155 111 64 263 167 142 114 91 64 72 95 91 89 101 103 95 79 94 116 132 149 189 201 354 47 67 83 144 169 174 180 179 175 186 202 213 213 206 198 195 188 184 192 199 203 205 206 206 211 218 220 214 215 208 196 199 209 205 196 191 190 193 196 197 196 189 180 183 238 285 298 330 335 332 331 335 339 347 354 355 357 358 1 3 3 3 3 5 6
39 35 95 93 6 62 130 149 147 121 162 234 153 140 105 98 86 77 91 97 98 107 121 123 96 102 150 170 177 196 195 21 76 100 117 134 156 158 173 184 183 184 193 207 215 220 214 201 189 183 191 200 203 207 208 208 209 213 220 224 226 219 207 202 207 211 205 202 205 207 209 212 213 210 215 224 234 268 291 324 334 328 328 331 335 348 353 354 358 360 5 10 9 8 8 9 8
30 32 80 67 2 72 143 140 116 109 193 204 158 150 114 99 116 93 89 108 120 127 145 126 95 109 152 167 172 190 226 350 123 129 134 133 154 162 169 177 188 193 191 199 205 214 219 213 202 188 189 198 204 208 209 211 213 214 217 225 227 220 219 217 210 209 206 209 213 214 216 219 221 221 229 233 240 253 266 301 311 315 318 317 326 344 348 350 357 2 13 18 16 12 11 13 12
18 41 71 46 0 82 50 65 132 146 188 186 155 150 136 121 133 124 122 136 132 141 140 114 110 126 137 147 162 187 229 250 169 164 155 147 169 181 183 179 185 196 199 203 202 204 212 214 211 199 192 193 199 208 212 213 216 218 220 225 228 228 229 226 218 212 208 212 218 218 220 220 219 222 229 235 251 259 255 261 265 291 298 294 322 336 337 345 356 6 20 27 26 21 18 19 18
22 93 82 67 111 59 258 183 159 151 145 166 150 119 131 152 161 148 149 135 131 129 116 118 130 132 129 136 153 187 215 204 184 179 170 169 187 195 198 193 187 195 202 207 210 208 209 212 211 207 199 193 190 198 207 211 214 215 219 225 229 235 236 228 218 220 223 217 217 221 224 223 222 225 230 235 242 248 241 238 245 258 262 286 318 324 329 343 358 11 19 27 32 32 29 24 19
36 98 83 160 185 64 67 115 112 130 140 150 142 103 120 147 159 150 220 146 133 126 107 124 134 129 134 147 165 207 209 190 176 180 181 181 192 202 209 213 207 209 213 211 214 216 214 213 214 210 205 199 189 187 195 203 214 214 216 222 224 231 235 230 222 230 237 228 222 220 224 226 225 226 231 236 237 243 246 247 252 252 259 288 305 313 320 336 3 13 13 19 26 28 25 21 17
20 73 83 235 204 79 68 93 84 109 138 135 130 134 128 145 156 149 189 121 126 145 144 147 151 152 161 168 184 198 205 192 172 176 185 190 198 208 219 229 232 234 237 232 226 226 225 221 217 212 207 203 192 187 189 197 212 217 216 218 217 220 225 224 224 233 234 223 216 211 216 223 224 227 232 237 238 238 248 260 264 265 276 288 296 302 300 331 10 4 6 18 22 19 15 15 16
357 84 147 213 176 91 71 98 85 98 122 123 126 136 141 160 170 167 163 110 85 173 170 182 178 175 178 176 191 196 203 198 174 172 181 191 201 211 224 230 235 243 249 251 246 239 237 233 226 217 209 203 194 189 188 194 207 214 214 211 209 209 212 217 220 224 224 217 214 213 215 218 220 226 237 243 242 237 246 262 263 267 278 280 294 300 299 344 4 353 1 15 18 15 11 12 17
28 80 137 123 114 117 127 124 107 107 116 112 123 131 176 172 185 193 172 173 212 185 174 181 182 187 196 201 216 204 202 202 185 181 183 189 201 211 225 235 242 250 256 258 260 255 244 238 234 226 212 202 196 190 189 192 199 206 206 199 199 203 204 208 211 212 214 214 213 217 218 220 226 224 225 235 241 241 243 251 252 260 255 270 292 292 309 349 357 349 -0 8 10 13 12 14 18
57 36 75 74 98 142 156 150 145 156 152 154 158 186 180 173 222 234 203 204 198 180 174 177 186 203 218 225 225 207 200 202 196 196 200 205 216 225 235 248 255 259 265 266 268 264 249 238 234 230 214 201 195 189 188 190 192 198 199 192 192 201 203 204 208 210 212 215 215 216 217 226 236 223 210 225 239 241 246 249 240 241 240 259 275 262 303 351 348 340 350 357 1 8 11 15 18
95 17 38 65 94 143 166 186 182 203 210 199 197 209 203 190 224 242 208 201 192 185 186 193 203 212 218 219 211 200 197 200 202 205 212 216 223 235 244 254 262 266 268 268 266 258 252 240 232 228 212 196 188 185 185 188 193 195 196 194 191 197 201 203 211 211 205 211 218 218 218 224 230 230 235 238 228 218 241 252 227 224 229 230 231 240 297 336 316 324 335 341 352 358 5 13 15
85 61 357 46 86 159 183 199 196 218 220 209 228 236 231 226 232 247 210 192 192 196 198 201 204 210 210 203 193 191 196 203 211 215 222 228 230 239 251 263 268 274 273 267 258 251 247 234 228 220 200 185 179 184 187 189 193 194 196 199 199 199 195 196 209 212 206 209 216 218 222 226 227 235 249 242 229 230 251 244 219 213 215 211 215 237 252 274 293 312 316 322 348 351 357 9 7
77 62 5 355 297 207 203 206 208 225 225 215 232 248 248 248 248 259 218 198 196 197 196 197 201 203 196 193 189 186 195 210 222 227 231 238 244 251 261 274 277 282 280 268 252 242 234 222 218 203 186 178 178 184 187 187 192 194 197 201 202 203 199 197 201 209 218 220 217 219 225 233 238 239 242 245 247 250 249 228 211 205 215 229 244 247 240 262 295 299 295 317 353 355 358 359 348
77 26 344 312 279 273 238 215 217 222 231 224 214 235 254 246 228 234 204 194 195 192 187 191 197 196 190 191 194 194 204 219 235 242 246 251 259 268 272 282 286 285 274 261 246 230 218 207 201 187 179 178 179 183 184 186 190 194 199 202 203 206 206 206 205 213 226 225 215 222 227 231 236 236 240 256 261 256 249 239 227 227 240 244 238 232 235 253 270 269 282 329 356 353 352 345 336
53 357 327 293 279 283 254 223 220 210 227 225 206 229 273 229 219 231 198 188 195 195 185 187 194 195 191 193 202 212 222 228 242 247 255 264 268 276 280 283 283 278 262 245 232 214 202 195 187 179 178 179 180 183 185 186 191 195 200 202 204 206 203 202 208 221 231 226 215 223 229 229 232 233 240 255 263 258 251 250 252 256 250 229 217 223 237 239 244 255 247 252 304 322 329 331 332
9 342 314 296 315 300 253 233 218 201 201 206 187 292 296 220 226 232 194 186 189 191 184 184 193 197 197 201 209 219 227 229 235 240 248 257 261 267 270 274 270 262 249 228 214 197 185 185 179 174 176 181 183 188 189 189 193 196 196 199 203 206 206 207 215 229 237 232 220 220 225 225 228 232 237 242 245 245 243 246 249 248 229 209 205 216 220 216 221 226 223 252 298 320 326 328 335
287 249 160 314 351 316 260 239 208 193 178 178 162 305 275 246 228 192 180 182 180 180 179 183 192 199 205 210 215 219 224 224 223 227 234 238 244 250 250 252 249 248 244 213 194 181 173 177 176 172 178 183 183 190 192 191 197 200 200 202 204 206 210 216 223 231 238 232 222 218 213 211 225 237 240 236 224 215 216 213 210 214 212 199 188 190 190 195 203 209 234 281 312 319 322 327 339
223 336 72 15 347 285 296 233 176 171 184 171 147 217 257 275 225 179 179 182 179 179 178 186 195 201 209 212 214 217 221 221 220 223 227 234 238 241 241 238 232 231 226 195 174 161 153 154 163 170 182 185 181 190 195 193 200 205 206 204 204 209 213 219 220 222 229 222 212 209 207 223 250 252 234 216 205 203 201 192 192 201 203 190 170 172 182 190 197 222 264 290 307 309 316 328 338
73 54 320 318 177 264 312 168 167 163 185 171 143 203 261 277 209 182 182 182 184 186 183 191 199 202 209 212 215 216 221 223 224 228 232 245 249 246 241 230 224 214 198 175 149 137 134 135 141 160 173 178 174 180 184 185 190 194 195 192 192 200 206 211 212 216 220 210 200 200 214 233 240 240 209 181 185 194 196 209 214 190 180 177 178 202 208 205 218 254 282 296 302 309 321 334 344
359 131 247 267 186 264 317 277 196 165 136 181 184 203 262 271 197 185 187 186 189 191 190 196 202 206 207 211 218 217 221 226 229 235 239 249 253 247 241 225 220 191 170 162 142 138 138 137 136 146 155 166 173 178 182 186 187 185 189 192 191 184 189 200 201 203 202 194 198 212 226 218 192 187 174 158 166 167 163 178 188 182 190 208 229 247 245 242 264 281 295 306 315 325 341 3 25
318 194 228 250 209 223 269 293 247 168 139 198 221 225 245 260 193 189 195 193 193 196 198 200 202 207 207 208 215 216 223 229 229 232 231 242 249 244 233 217 209 169 156 160 142 141 140 136 141 148 150 154 166 178 186 185 184 184 183 188 194 189 185 187 180 179 178 177 198 204 202 179 162 163 149 138 141 139 156 177 188 200 211 214 217 236 247 262 298 309 318 332 349 5 29 48 57
211 194 214 261 248 235 223 257 229 168 161 198 200 243 249 261 218 199 202 199 200 204 203 203 202 204 204 205 209 212 222 228 226 225 222 229 237 237 225 203 190 162 150 153 141 142 146 145 146 152 162 163 159 166 173 169 169 175 174 172 176 173 167 161 154 158 160 161 169 143 119 115 122 132 132 139 147 148 163 178 179 176 174 176 182 235 286 312 324 338 0 25 38 45 52 56 59
184 185 173 195 230 266 234 241 221 172 172 218 205 228 244 247 234 213 209 204 207 213 209 204 202 202 203 203 206 210 217 223 223 220 218 221 221 222 213 193 178 162 151 152 152 148 154 163 157 151 163 167 162 166 172 168 164 168 167 164 162 158 155 154 151 154 153 150 144 134 137 128 117 123 129 138 147 152 160 157 150 146 141 158 209 278 325 17 45 56 60 64 61 56 57 57 59
214 225 228 209 213 266 250 247 244 171 161 238 222 227 248 243 231 221 214 206 209 217 215 208 202 202 203 201 202 207 213 220 225 222 216 213 211 208 202 188 171 165 161 157 162 160 157 165 166 160 159 158 158 167 175 176 173 171 168 166 164 160 160 166 168 166 164 165 157 149 152 151 149 152 146 148 155 162 165 153 144 130 118 123 126 113 97 89 84 77 68 63 60 54 57 61 63
243 242 256 261 228 252 255 226 241 175 173 257 251 246 257 252 238 224 210 200 210 213 211 209 204 202 204 202 201 204 210 217 222 220 212 206 204 199 194 185 171 171 173 164 163 166 162 162 165 165 162 161 162 162 166 167 165 168 174 175 176 172 172 185 195 190 188 188 180 172 169 168 171 168 161 165 166 157 149 136 125 116 108 103 102 98 90 80 71 63 51 41 35 32 41 52 57
236 234 238 256 245 261 295 312 295 75 191 252 282 268 260 263 256 226 204 203 216 215 212 210 205 201 201 201 201 203 207 214 217 215 208 201 199 194 186 179 172 173 173 166 166 169 166 164 166 169 169 172 176 174 174 173 168 171 181 184 190 190 188 199 202 185 178 173 162 158 154 150 151 144 135 132 129 122 118 115 110 105 100 92 86 83 76 66 56 48 38 31 25 20 22 28 30
221 218 206 238 252 242 273 299 283 259 214 233 286 280 265 271 275 250 216 215 223 222 218 216 210 205 205 205 205 207 209 212 213 210 203 198 196 192 183 177 174 173 172 171 173 172 168 166 164 166 167 166 169 172 176 182 182 184 190 193 201 202 189 179 160 145 144 140 134 132 129 127 127 123 119 118 116 113 109 105 100 96 93 86 79 73 67 57 47 39 32 26 17 11 13 15 16
233 205 190 210 225 213 232 278 296 320 332 304 300 298 274 238 245 257 231 217 229 226 215 218 216 212 210 207 208 212 216 217 215 209 201 198 196 190 184 182 177 173 173 175 176 175 173 174 173 170 169 171 175 180 186 194 197 198 200 197 191 176 157 147 138 133 133 131 127 124 123 122 122 120 117 115 111 106 102 96 91 87 83 77 66 56 52 46 40 33 28 21 15 15 18 17 14
261 225 200 201 202 218 236 212 61 0 318 275 200 285 280 246 233 253 243 188 221 216 205 208 209 208 207 204 205 209 214 218 220 215 204 199 195 190 187 187 182 176 177 178 178 180 179 178 180 180 179 180 184 189 196 204 204 203 195 176 162 151 141 138 136 134 133 132 128 126 124 123 122 118 114 109 102 96 90 84 78 72 66 61 52 44 41 38 31 27 25 19 18 22 21 14 17
251 242 204 200 205 220 228 203 134 254 262 265 137 193 274 292 238 246 220 185 219 218 212 208 199 198 200 201 203 205 207 210 214 213 205 199 195 192 189 186 185 183 183 182 181 181 181 180 182 183 181 182 184 186 189 190 181 173 165 155 149 144 139 138 137 135 135 133 129 127 126 123 119 114 108 102 94 87 80 74 67 59 52 47 41 33 28 26 22 21 20 16 17 20 15 13 22
234 244 184 183 205 217 221 210 214 230 259 304 114 135 280 278 246 232 197 193 228 229 225 217 201 197 197 199 203 205 208 209 208 205 201 197 196 194 191 184 182 184 184 182 181 180 181 185 186 185 185 185 184 182 176 169 161 155 153 151 146 143 140 138 138 138 136 133 130 128 125 122 117 110 104 98 89 81 72 63 55 44 37 34 29 22 22 23 20 19 18 16 16 16 14 17 22
242 229 149 147 176 183 171 162 201 304 350 295 213 120 287 274 260 230 190 203 235 234 225 219 208 203 199 198 202 205 208 210 208 205 200 196 195 194 190 183 181 183 184 183 183 183 186 188 185 184 187 185 179 173 163 157 157 154 153 152 146 145 143 139 140 140 135 135 134 128 125 121 116 110 101 93 83 74 61 51 43 33 29 27 24 22 24 24 21 19 17 16 15 14 16 17 16
216 152 90 71 75 80 82 111 116 27 318 238 200 154 236 270 246 114 185 227 235 236 229 220 211 207 204 201 201 202 204 205 205 205 202 195 193 193 189 183 183 184 186 186 185 185 187 186 185 185 184 180 174 165 157 155 159 158 156 155 151 148 146 143 144 142 138 141 139 131 128 122 115 110 101 92 81 68 56 46 38 29 27 25 23 21 20 18 15 14 14 14 14 13 14 14 13
134 95 60 44 25 32 44 55 87 41 273 222 189 180 191 267 269 158 191 227 225 230 233 221 206 205 209 207 204 202 200 199 198 199 200 193 191 192 187 183 184 185 186 188 188 186 187 187 187 184 178 175 170 162 157 157 160 161 159 158 157 153 150 150 150 148 146 148 146 138 134 128 122 116 105 97 83 68 55 42 33 25 23 21 17 15 13 12 11 11 12 12 11 10 11 11 11
116 88 82 67 353 12 20 1 79 219 258 213 186 187 186 231 265 215 222 267 254 224 225 212 194 200 206 207 205 204 200 199 197 196 197 192 190 190 187 185 186 186 186 188 188 187 188 189 187 180 173 172 169 163 161 162 161 163 164 163 163 160 157 158 158 156 154 154 154 148 143 140 135 127 115 103 85 66 46 32 26 20 17 14 12 11 9 9 10 9 9 8 7 6 7 6 4
99 103 113 121 282 9 5 293 171 227 259 234 187 184 200 236 258 257 253 269 264 232 229 221 202 197 197 198 201 202 200 199 198 197 197 194 191 190 187 186 187 187 187 188 189 189 189 188 184 178 173 172 172 168 166 166 164 166 168 167 168 166 164 165 165 164 160 158 161 157 154 152 145 134 122 101 75 55 37 27 22 16 12 10 9 9 8 8 7 6 4 2 2 360 358 357 355
148 138 143 161 171 202 247 228 235 251 263 269 189 172 235 271 273 253 249 263 279 277 262 242 217 200 192 192 195 196 196 197 197 197 198 196 194 192 187 186 186 187 188 189 189 189 189 186 182 179 177 175 174 171 170 170 168 170 172 173 174 174 172 170 170 171 168 166 167 164 159 154 146 133 116 89 62 48 33 24 17 11 9 9 9 8 6 5 2 -0 359 356 354 353 353 351 348
183 151 140 163 163 183 217 200 219 249 270 286 239 165 201 209 246 242 247 280 321 317 261 223 207 197 188 185 187 188 190 194 197 198 199 199 196 193 189 186 186 187 188 190 190 190 188 185 182 181 181 178 175 175 175 175 173 174 176 177 179 179 178 176 175 175 175 174 172 168 163 154 144 129 109 79 59 48 30 23 17 11 10 8 7 5 1 359 357 353 351 349 349 349 347 345 342
224 119 121 189 184 181 220 209 188 185 297 278 214 220 214 208 254 244 244 301 0 33 149 152 161 175 176 177 181 185 188 192 197 198 198 199 197 193 190 188 187 188 189 190 190 189 187 185 184 184 184 181 179 179 179 180 180 179 180 182 184 183 184 184 182 179 178 176 174 171 167 157 147 136 115 85 64 49 28 21 17 10 9 6 3 0 356 352 349 347 346 345 346 346 344 343 340
182 150 178 203 169 163 214 272 88 104 275 260 190 244 282 298 271 243 125 320 4 41 125 146 155 164 170 177 181 185 190 193 197 198 198 198 196 193 191 190 189 188 190 191 190 189 187 187 186 186 187 186 184 184 184 184 185 185 185 186 188 189 189 190 190 187 183 179 177 175 173 165 158 153 130 94 62 43 29 21 15 9 6 3 358 353 349 347 345 345 346 346 347 347 346 346 344
134 190 197 146 49 101 151 273 324 180 256 266 192 232 255 239 263 305 79 237 258 243 188 159 164 168 173 181 184 188 192 194 197 198 198 198 196 194 192 192 191 189 190 191 190 189 189 190 190 189 190 190 190 189 189 190 191 191 192 192 193 193 193 193 194 192 189 186 184 181 178 177 172 165 149 102 57 36 26 18 11 6 1 355 351 346 345 346 347 348 348 349 349 349 349 349 346
138 189 183 132 107 203 144 192 234 203 244 275 233 232 228 207 219 211 182 217 220 217 202 185 184 182 182 185 186 190 192 194 197 198 199 198 197 196 193 192 192 191 192 192 191 191 191 192 194 194 194 194 194 193 192 193 195 197 199 197 197 196 195 196 195 194 194 192 191 188 185 187 185 178 169 132 46 25 18 11 4 358 352 347 343 344 346 347 348 348 347 348 348 348 347 346 343
61 82 168 137 134 173 168 179 185 174 216 252 279 273 239 222 205 182 199 212 203 196 200 202 199 192 189 187 187 191 193 196 198 198 199 198 198 197 195 193 193 192 194 194 194 194 194 195 196 196 197 197 198 197 196 197 199 201 202 200 199 198 197 198 198 198 199 196 195 194 194 195 196 192 193 201 235 311 336 338 344 343 342 341 340 342 345 344 344 343 343 343 344 344 343 341 340
141 147 178 185 132 114 184 215 161 148 186 222 268 278 259 238 201 191 204 210 198 193 198 204 202 196 193 191 191 192 195 197 199 199 199 199 199 199 196 195 195 195 196 197 197 197 197 198 199 199 199 200 201 201 200 202 203 203 205 203 201 200 200 200 200 201 202 200 199 200 201 203 203 202 205 209 214 219 239 275 313 329 332 333 334 337 338 337 336 336 337 338 337 337 337 337 336
177 183 184 185 179 156 193 241 206 161 196 189 205 268 266 239 272 232 216 217 207 200 200 200 200 197 195 195 195 196 197 198 199 199 199 200 200 199 197 196 197 198 199 199 199 199 200 201 202 202 203 204 205 204 204 205 206 206 206 206 205 204 203 203 204 204 204 204 206 207 208 208 207 208 207 205 209 219 237 260 295 314 320 323 326 330 330 329 330 330 331 331 331 332 333 332 331